Content
SEND FEEDBACK

Daily
Averages
Monthly
Summary
United States of America

PLAINVILLE, KANSAS


Home > North America > United States > Kansas
Elevation: 2144 feet     Latitude: 39 14N     Longitude: 099 18W

WEATHER
 
SELECT A DAY
Number of Records: 344,817;   Date Range: 1/1/95 - 8/12/14
 
SHARE

PRINT THIS DATA

[ ← Previous Day ]
WEATHER ALMANAC - JANUARY 31, 2013
[ Next Day → ]
[ °C ]   °F
Weather ElementAverageHighLow
Temperature23.2 °F28.4 °F (7:35 am)14 °F (8:35 pm)
Dewpoint15 °F21.2 °F (6:35 am)5 °F (8:35 pm)
Humidity71.1 %86 % (10:15 pm)54 % (5:55 pm)
Barometer30.15 in30.35 in (8:55 pm)29.90 in (12:35 am)
Wind Speed8.3 mph19.6 mph (1:35 pm)
Wind Gust23 mph (1:35 pm)
Weather ElementAverage
Visibility10 mi
Wind DirectionSSE (143 °)

Weather ElementTotal
Precipitation---
Heating Degree Days43.8 (Base 65)
Averaged from 67 records on January 31, 2013
WEATHER CONDITIONS BREAKOUT
WIND DIRECTION BREAKOUT
WEATHER BY HOUR - JANUARY 31, 2013
[ °C ]   °F
Local TimeTemperatureDewpointHumidityBarometerVisibilityWind DirectionWind SpeedGust SpeedPrecipitationEventsConditions
12:35 AM24.8 °F17.6 °F74 %29.90 in10.0 miWNW (290°)9.2 mphClear
12:55 AM26.6 °F17.6 °F69 %29.90 in10.0 miWNW (290°)11.5 mphClear
1:15 AM26.6 °F17.6 °F69 %29.91 in10.0 miWNW (290°)10.4 mph16.1 mphClear
1:35 AM26.6 °F17.6 °F69 %29.91 in10.0 miWNW (290°)12.7 mphClear
1:55 AM24.8 °F17.6 °F74 %29.91 in10.0 miWNW (290°)8.1 mphClear
2:15 AM23.0 °F15.8 °F74 %29.92 in10.0 miWest (280°)6.9 mphClear
2:35 AM23.0 °F15.8 °F74 %29.92 in10.0 miWNW (290°)5.8 mphClear
2:55 AM23.0 °F15.8 °F74 %29.93 in10.0 miWest (270°)4.6 mphClear
3:15 AM21.2 °F14.0 °F74 %29.93 in10.0 miWest (280°)5.8 mphClear
3:35 AM21.2 °F15.8 °F80 %29.93 in10.0 miNW (320°)5.8 mphMostly Cloudy
3:55 AM23.0 °F17.6 °F80 %29.93 in10.0 miWest (260°)4.6 mphScattered Clouds
4:15 AM24.8 °F17.6 °F74 %29.93 in10.0 miWest (260°)6.9 mphMostly Cloudy
4:35 AM24.8 °F19.4 °F80 %29.92 in10.0 miWNW (300°)4.6 mphOvercast
4:55 AM24.8 °F17.6 °F74 %29.93 in10.0 miNNW (330°)3.5 mphMostly Cloudy
5:15 AM24.8 °F19.4 °F80 %29.93 in10.0 miWNW (300°)5.8 mphMostly Cloudy
5:35 AM24.8 °F17.6 °F74 %29.94 in10.0 miWSW (240°)5.8 mphScattered Clouds
5:55 AM24.8 °F19.4 °F80 %29.95 in10.0 miWest (280°)5.8 mphPartly Cloudy
6:15 AM26.6 °F19.4 °F74 %29.95 in10.0 miNW (310°)5.8 mphScattered Clouds
6:35 AM26.6 °F21.2 °F80 %29.96 in10.0 miNNW (330°)6.9 mphMostly Cloudy
6:55 AM26.6 °F21.2 °F80 %29.97 in10.0 miNNW (330°)6.9 mphMostly Cloudy
7:15 AM26.6 °F21.2 °F80 %29.99 in10.0 miNorth (350°)8.1 mphOvercast
7:35 AM28.4 °F21.2 °F74 %30.01 in10.0 miNNE (20°)9.2 mphOvercast
7:55 AM28.4 °F21.2 °F74 %30.03 in10.0 miENE (60°)6.9 mphOvercast
8:15 AM26.6 °F21.2 °F80 %30.05 in10.0 miNE (40°)10.4 mphOvercast
8:35 AM24.8 °F19.4 °F80 %30.07 in10.0 miNE (40°)12.7 mphOvercast
8:55 AM24.8 °F17.6 °F74 %30.09 in10.0 miNE (40°)8.1 mphOvercast
9:15 AM24.8 °F17.6 °F74 %30.11 in10.0 miNE (40°)9.2 mphOvercast
9:35 AM24.8 °F17.6 °F74 %30.13 in10.0 miNE (50°)10.4 mphOvercast
9:55 AM24.8 °F17.6 °F74 %30.14 in10.0 miENE (60°)6.9 mphOvercast
10:15 AM24.8 °F15.8 °F69 %30.15 in10.0 miNE (50°)6.9 mphMostly Cloudy
10:35 AM24.8 °F15.8 °F69 %30.17 in10.0 miNE (50°)8.1 mphPartly Cloudy
10:55 AM24.8 °F17.6 °F74 %30.20 in10.0 miNNE (20°)11.5 mphMostly Cloudy
11:15 AM26.6 °F17.6 °F69 %30.20 in10.0 miNNE (30°)15.0 mphMostly Cloudy
11:35 AM26.6 °F17.6 °F69 %30.21 in10.0 miNorth (10°)15.0 mphPartly Cloudy
11:55 AM26.6 °F17.6 °F69 %30.23 in10.0 miNNE (20°)15.0 mphPartly Cloudy
12:15 PM26.6 °F17.6 °F69 %30.23 in10.0 miNNE (20°)13.8 mphMostly Cloudy
12:35 PM26.6 °F17.6 °F69 %30.23 in10.0 miNNE (30°)16.1 mphMostly Cloudy
12:55 PM26.6 °F17.6 °F69 %30.24 in10.0 miNNE (30°)16.1 mphOvercast
1:15 PM26.6 °F17.6 °F69 %30.24 in10.0 miNorth (10°)13.8 mphOvercast
1:35 PM24.8 °F15.8 °F69 %30.25 in10.0 miNorth (360°)19.6 mph23.0 mphOvercast
2:15 PM26.6 °F15.8 °F64 %30.25 in10.0 miNorth (10°)15.0 mphMostly Cloudy
2:35 PM24.8 °F14.0 °F64 %30.26 in10.0 miNNE (20°)13.8 mphMostly Cloudy
2:55 PM24.8 °F15.8 °F69 %30.26 in10.0 miNorth (10°)9.2 mphMostly Cloudy
3:15 PM24.8 °F15.8 °F69 %30.26 in10.0 miNorth (10°)12.7 mphMostly Cloudy
3:35 PM24.8 °F12.2 °F59 %30.25 in10.0 miNorth (10°)8.1 mphPartly Cloudy
3:55 PM24.8 °F12.2 °F59 %30.27 in10.0 miNNE (30°)8.1 mphClear
4:15 PM24.8 °F14.0 °F64 %30.27 in10.0 miNorth (360°)15.0 mphClear
4:35 PM24.8 °F12.2 °F59 %30.28 in10.0 miNNE (30°)11.5 mphClear
4:55 PM23.0 °F12.2 °F63 %30.29 in10.0 miNE (40°)8.1 mphClear
5:15 PM23.0 °F12.2 °F63 %30.29 in10.0 miNNE (20°)6.9 mphClear
5:35 PM21.2 °F10.4 °F63 %30.29 in10.0 miNNE (20°)6.9 mphClear
5:55 PM21.2 °F6.8 °F54 %30.29 in10.0 miNNE (20°)8.1 mphClear
6:15 PM19.4 °F6.8 °F58 %30.30 in10.0 miNNE (20°)4.6 mphClear
6:35 PM19.4 °F6.8 °F58 %30.31 in10.0 miCalmClear
7:15 PM19.4 °F6.8 °F58 %30.33 in10.0 miCalmClear
7:35 PM15.8 °F6.8 °F68 %30.33 in10.0 miSSE (160°)3.5 mphClear
7:55 PM15.8 °F6.8 °F68 %30.33 in10.0 miSouth (180°)4.6 mphScattered Clouds
8:15 PM15.8 °F8.6 °F73 %30.34 in10.0 miCalmOvercast
8:35 PM14.0 °F5.0 °F67 %30.34 in10.0 miSSW (200°)3.5 mphScattered Clouds
8:55 PM14.0 °F6.8 °F73 %30.35 in10.0 miSSE (150°)3.5 mphScattered Clouds
9:15 PM15.8 °F8.6 °F73 %30.34 in10.0 miSSE (150°)6.9 mphMostly Cloudy
9:35 PM15.8 °F10.4 °F79 %30.35 in10.0 miESE (120°)4.6 mphMostly Cloudy
10:15 PM15.8 °F12.2 °F86 %30.33 in10.0 miEast (100°)3.5 mphOvercast
10:35 PM17.6 °F10.4 °F73 %30.34 in10.0 miSouth (180°)4.6 mphOvercast
11:15 PM17.6 °F12.2 °F79 %30.34 in10.0 miSouth (180°)6.9 mphOvercast
11:35 PM19.4 °F12.2 °F74 %30.34 in10.0 miSSW (200°)8.1 mphOvercast
11:55 PM19.4 °F12.2 °F74 %30.33 in10.0 miSSW (200°)9.2 mphOvercast
Hourly data recorded from KHYS, located miles away from Plainville, Kansas







STORIES FROM OUR PARTNERS